Hugo, OK

8:08 AM CDT on August 20, 2017 (GMT -0500)
Stamper Municipal

Weather History for KHHW - November, 2012

Change the Weather History Date:

Thursday, November 15, 2012

  Actual Average Record
Temperature  
Mean Temperature 45 °F -  
Max Temperature 59 °F 64 °F 81 °F (2016)
Min Temperature 31 °F 43 °F 32 °F (2014)
Degree Days  
Heating Degree Days 20    
Moisture  
Dew Point 31 °F    
Average Humidity 61    
Maximum Humidity 92    
Minimum Humidity 34    
Precipitation  
Precipitation 0.00 in - - ()
Sea Level Pressure  
Sea Level Pressure 30.31 in    
Wind  
Wind Speed 3 mph ()    
Max Wind Speed 6 mph    
Max Gust Speed -    
Visibility 10.0 miles    
Events      
Averages and records for this station are not official NWS values.
T = Trace of Precipitation, MM = Missing Value Source: Averaged Metar Reports

Daily Weather History Graph

Daily Weather History Graph

Search for Another Location

Airport or City:

Trip Planner

Search our weather history database for the weather conditions in past years. The results will help you decide how hot, cold, wet, or windy it might be!

Date:

Astronomy

Nov. 15, 2012 Rise Set
Actual Time 6:55 AM CST 5:18 PM CST
Civil Twilight 6:28 AM CST 5:44 PM CST
Nautical Twilight 5:58 AM CST 6:14 PM CST
Astronomical Twilight 5:28 AM CST 6:44 PM CST
Moon 8:48 AM CST (11/15) 7:13 PM CST (11/15)
Length of Visible Light 11h 16m
Length of Day
10h 22m
Waxing Crescent, 5% of the Moon is Illuminated
Nov 15
Waxing Crescent
Nov 20
First Quarter
Nov 28
Full
Dec 6
Last Quarter
Dec 13
New

Hourly Weather History & Observations

Time (CST) Temp. Windchill Dew Point Humidity Pressure Visibility Wind Dir Wind Speed Gust Speed Precip Events Conditions
12:15 AM 37.4 °F 33.8 °F 28.2 °F 69% 30.31 in 10.0 mi ESE 4.6 mph - N/A   Clear
12:35 AM 37.8 °F 35.3 °F 28.2 °F 68% 30.30 in 10.0 mi ESE 3.5 mph - N/A   Clear
12:55 AM 37.6 °F 35.1 °F 27.9 °F 68% 30.30 in 10.0 mi East 3.5 mph - N/A   Clear
1:15 AM 37.4 °F 34.9 °F 28.2 °F 69% 30.30 in 10.0 mi East 3.5 mph - N/A   Clear
1:35 AM 36.3 °F - 28.4 °F 73% 30.31 in 10.0 mi Calm Calm - N/A   Clear
1:55 AM 34.2 °F - 29.8 °F 84% 30.31 in 10.0 mi Calm Calm - N/A   Clear
2:15 AM 34.2 °F - 30.6 °F 87% 30.31 in 10.0 mi Calm Calm - N/A   Clear
2:35 AM 33.1 °F 28.7 °F 30.2 °F 89% 30.30 in 10.0 mi East 4.6 mph - N/A   Clear
2:55 AM 32.9 °F 29.8 °F 29.7 °F 88% 30.31 in 10.0 mi East 3.5 mph - N/A   Clear
3:15 AM 32.4 °F - 29.3 °F 88% 30.31 in 10.0 mi Calm Calm - N/A   Clear
3:35 AM 32.4 °F - 29.1 °F 88% 30.31 in 10.0 mi North - - N/A   Clear
3:55 AM 32.9 °F - 29.3 °F 87% 30.31 in 10.0 mi Calm Calm - N/A   Clear
4:15 AM 32.0 °F - 29.1 °F 89% 30.31 in 10.0 mi North - - N/A   Clear
4:35 AM 31.1 °F - 29.1 °F 92% 30.31 in 10.0 mi North - - N/A   Clear
4:55 AM 32.0 °F 27.5 °F 29.5 °F 90% 30.30 in 10.0 mi East 4.6 mph - N/A   Clear
5:15 AM 32.0 °F 27.5 °F 29.7 °F 91% 30.30 in 10.0 mi ESE 4.6 mph - N/A   Clear
5:35 AM 31.6 °F - 28.8 °F 89% 30.31 in 10.0 mi North - - N/A   Clear
5:55 AM 32.9 °F - 29.3 °F 87% 30.31 in 10.0 mi North - - N/A   Clear
6:15 AM 31.6 °F - 28.9 °F 90% 30.31 in 10.0 mi North - - N/A   Clear
6:35 AM 31.1 °F - 28.4 °F 90% 30.32 in 10.0 mi North - - N/A   Clear
6:55 AM 31.1 °F - 28.6 °F 90% 30.33 in 10.0 mi North - - N/A   Clear
7:15 AM 32.0 °F - 28.9 °F 88% 30.34 in 10.0 mi Calm Calm - N/A   Clear
7:35 AM 33.1 °F 30.0 °F 29.3 °F 86% 30.33 in 10.0 mi East 3.5 mph - N/A   Clear
7:55 AM 34.0 °F - 30.0 °F 85% 30.35 in 10.0 mi Calm Calm - N/A   Clear
8:15 AM 37.2 °F 33.6 °F 32.0 °F 81% 30.34 in 10.0 mi ESE 4.6 mph - N/A   Clear
8:35 AM 40.1 °F 36.1 °F 31.8 °F 72% 30.35 in 10.0 mi ESE 5.8 mph - N/A   Clear
8:55 AM 41.2 °F 37.3 °F 32.2 °F 70% 30.35 in 10.0 mi ESE 5.8 mph - N/A   Clear
9:15 AM 43.2 °F 40.5 °F 32.0 °F 65% 30.35 in 10.0 mi ESE 4.6 mph - N/A   Clear
9:35 AM 45.0 °F 42.6 °F 32.0 °F 60% 30.35 in 10.0 mi ESE 4.6 mph - N/A   Clear
9:55 AM 46.9 °F - 32.2 °F 57% 30.35 in 10.0 mi ESE 3.5 mph - N/A   Clear
10:15 AM 48.0 °F - 32.2 °F 54% 30.36 in 10.0 mi East 3.5 mph - N/A   Clear
10:35 AM 49.3 °F - 32.4 °F 52% 30.36 in 10.0 mi East 3.5 mph - N/A   Clear
10:55 AM 50.5 °F - 32.0 °F 49% 30.36 in 10.0 mi East 3.5 mph - N/A   Clear
11:15 AM 53.4 °F - 32.0 °F 44% 30.35 in 10.0 mi Calm Calm - N/A   Clear
11:35 AM 55.0 °F - 32.0 °F 42% 30.34 in 10.0 mi SE 4.6 mph - N/A   Clear
11:55 AM 56.5 °F - 31.8 °F 39% 30.33 in 10.0 mi Calm Calm - N/A   Clear
12:15 PM 57.2 °F - 29.7 °F 35% 30.32 in 10.0 mi ESE 3.5 mph - N/A   Clear
12:35 PM 58.1 °F - 30.2 °F 35% 30.31 in 10.0 mi SE 3.5 mph - N/A   Clear
12:55 PM 57.9 °F - 30.0 °F 35% 30.30 in 10.0 mi South 5.8 mph - N/A   Clear
1:15 PM 58.8 °F - 31.3 °F 35% 30.29 in 10.0 mi Calm Calm - N/A   Clear
1:35 PM 58.8 °F - 30.2 °F 34% 30.28 in 10.0 mi SSW 4.6 mph - N/A   Clear
1:55 PM 58.8 °F - 30.2 °F 34% 30.28 in 10.0 mi SSW 3.5 mph - N/A   Clear
2:15 PM 58.8 °F - 30.6 °F 34% 30.28 in 10.0 mi Calm Calm - N/A   Clear
2:35 PM 59.2 °F - 30.7 °F 34% 30.27 in 10.0 mi Calm Calm - N/A   Clear
2:55 PM 59.7 °F - 31.5 °F 34% 30.26 in 10.0 mi East 3.5 mph - N/A   Clear
3:15 PM 59.2 °F - 31.1 °F 35% 30.26 in 10.0 mi ESE 3.5 mph - N/A   Clear
3:35 PM 59.2 °F - 31.3 °F 35% 30.26 in 10.0 mi South 3.5 mph - N/A   Clear
3:55 PM 59.0 °F - 31.8 °F 36% 30.26 in 10.0 mi SSW 3.5 mph - N/A   Clear
4:15 PM 58.5 °F - 31.8 °F 37% 30.26 in 10.0 mi SSE 5.8 mph - N/A   Clear
4:35 PM 57.6 °F - 31.6 °F 37% 30.27 in 10.0 mi Calm Calm - N/A   Clear
4:55 PM 55.6 °F - 32.0 °F 41% 30.28 in 10.0 mi SSW 4.6 mph - N/A   Clear
5:15 PM 54.9 °F - 31.6 °F 41% 30.28 in 10.0 mi SSW 4.6 mph - N/A   Clear
5:35 PM 52.0 °F - 32.0 °F 47% 30.28 in 10.0 mi SW 4.6 mph - N/A   Clear
5:55 PM 52.7 °F - 31.5 °F 44% 30.29 in 10.0 mi SSW 3.5 mph - N/A   Clear
6:15 PM 52.0 °F - 31.3 °F 45% 30.30 in 10.0 mi SW 3.5 mph - N/A   Clear
6:35 PM 51.1 °F - 30.7 °F 46% 30.30 in 10.0 mi SW 3.5 mph - N/A   Clear
6:55 PM 50.2 °F - 31.6 °F 49% 30.31 in 10.0 mi SSW 3.5 mph - N/A   Clear
7:15 PM 49.5 °F - 31.8 °F 51% 30.30 in 10.0 mi SSW 4.6 mph - N/A   Clear
7:35 PM 48.6 °F - 32.2 °F 53% 30.31 in 10.0 mi SSW 5.8 mph - N/A   Clear
7:55 PM 48.7 °F - 31.5 °F 51% 30.31 in 10.0 mi SSW 4.6 mph - N/A   Clear
8:15 PM 48.9 °F - 30.7 °F 50% 30.31 in 10.0 mi South 3.5 mph - N/A   Clear
8:35 PM 48.4 °F - 30.6 °F 50% 30.32 in 10.0 mi South 3.5 mph - N/A   Clear
8:55 PM 48.2 °F - 30.4 °F 50% 30.32 in 10.0 mi Calm Calm - N/A   Clear
9:15 PM 46.8 °F - 30.6 °F 53% 30.33 in 10.0 mi Calm Calm - N/A   Clear
9:35 PM 45.5 °F 44.2 °F 30.7 °F 56% 30.33 in 10.0 mi NNE 3.5 mph - N/A   Clear
9:55 PM 43.3 °F - 32.5 °F 66% 30.34 in 10.0 mi Calm Calm - N/A   Clear
10:15 PM 43.5 °F - 31.6 °F 63% 30.35 in 10.0 mi Calm Calm - N/A   Clear
10:35 PM 43.3 °F - 31.6 °F 63% 30.34 in 10.0 mi Calm Calm - N/A   Clear
10:55 PM 44.1 °F - 31.1 °F 60% 30.34 in 10.0 mi Calm Calm - N/A   Clear
11:15 PM 41.2 °F 39.2 °F 31.3 °F 68% 30.35 in 10.0 mi NNE 3.5 mph - N/A   Clear
11:35 PM 39.0 °F 36.8 °F 31.1 °F 73% 30.36 in 10.0 mi North 3.5 mph - N/A   Clear
11:55 PM 38.3 °F - 31.1 °F 75% 30.35 in 10.0 mi Calm Calm - N/A   Clear